TimeEDT,TemperatureF,Dew PointF,Humidity,Sea Level PressureIn,VisibilityMPH,Wind Direction,Wind SpeedMPH,Gust SpeedMPH,PrecipitationIn,Events,Conditions,WindDirDegrees,DateUTC
12:53 AM,66.9,64.0,90,29.86,9.0,Calm,Calm,-,N/A,,Clear,0,2012-10-18 04:53:00
1:53 AM,70.0,66.9,90,29.84,5.0,Calm,Calm,-,0.02,Rain,Light Rain,0,2012-10-18 05:53:00
2:22 AM,71.6,68.0,88,29.84,10.0,Calm,Calm,-,0.00,,Mostly Cloudy,0,2012-10-18 06:22:00
2:46 AM,69.8,68.0,94,29.84,1.8,Variable,5.8,-,0.12,Rain,Heavy Rain,0,2012-10-18 06:46:00
2:53 AM,71.1,66.0,84,29.83,1.5,East,9.2,-,0.17,Rain,Rain,100,2012-10-18 06:53:00
2:56 AM,71.6,66.2,83,29.83,3.0,North,-9999.0,-,0.00,Rain,Light Rain,0,2012-10-18 06:56:00
3:11 AM,69.8,66.2,88,29.83,10.0,Calm,Calm,-,0.00,,Overcast,0,2012-10-18 07:11:00
3:53 AM,69.1,66.9,93,29.83,8.0,Calm,Calm,-,0.00,,Scattered Clouds,0,2012-10-18 07:53:00
4:29 AM,69.8,66.2,88,29.84,8.0,NW,4.6,-,N/A,,Mostly Cloudy,320,2012-10-18 08:29:00
4:38 AM,69.8,66.2,88,29.84,9.0,WNW,3.5,-,N/A,,Mostly Cloudy,300,2012-10-18 08:38:00
4:53 AM,68.0,66.0,93,29.83,8.0,Calm,Calm,-,N/A,,Partly Cloudy,0,2012-10-18 08:53:00
5:53 AM,68.0,66.0,93,29.84,3.0,Calm,Calm,-,N/A,,Partly Cloudy,0,2012-10-18 09:53:00
6:10 AM,66.2,66.2,100,29.86,1.8,Calm,Calm,-,N/A,,Scattered Clouds,0,2012-10-18 10:10:00
6:21 AM,68.0,66.2,94,29.86,3.0,Calm,Calm,-,N/A,,Mostly Cloudy,0,2012-10-18 10:21:00
6:53 AM,68.0,64.9,90,29.87,5.0,Calm,Calm,-,N/A,,Partly Cloudy,0,2012-10-18 10:53:00
7:05 AM,68.0,66.2,94,29.87,5.0,Calm,Calm,-,N/A,,Mostly Cloudy,0,2012-10-18 11:05:00
7:53 AM,70.0,66.9,90,29.88,7.0,WSW,6.9,-,N/A,,Overcast,240,2012-10-18 11:53:00
8:50 AM,69.8,68.0,94,29.89,7.0,SSW,5.8,-,N/A,,Overcast,210,2012-10-18 12:50:00
8:53 AM,70.0,68.0,93,29.89,7.0,SSW,5.8,-,N/A,,Overcast,210,2012-10-18 12:53:00
9:53 AM,70.0,68.0,93,29.89,6.0,SW,4.6,-,N/A,,Overcast,230,2012-10-18 13:53:00
10:41 AM,71.6,66.2,83,29.89,8.0,West,5.8,-,N/A,,Overcast,260,2012-10-18 14:41:00
10:53 AM,70.0,66.9,90,29.89,9.0,West,3.5,-,N/A,,Overcast,260,2012-10-18 14:53:00
11:53 AM,73.0,66.9,81,29.88,10.0,Variable,3.5,-,N/A,,Mostly Cloudy,0,2012-10-18 15:53:00
12:23 PM,73.4,66.2,78,29.88,10.0,WSW,4.6,-,N/A,,Scattered Clouds,240,2012-10-18 16:23:00
12:53 PM,75.9,66.9,74,29.86,10.0,Calm,Calm,-,N/A,,Clear,0,2012-10-18 16:53:00
1:53 PM,77.0,68.0,74,29.84,10.0,ESE,5.8,-,N/A,,Clear,120,2012-10-18 17:53:00
2:53 PM,75.0,66.9,76,29.81,10.0,ESE,4.6,-,N/A,,Clear,110,2012-10-18 18:53:00
3:53 PM,75.0,68.0,79,29.81,10.0,ESE,9.2,-,N/A,,Clear,120,2012-10-18 19:53:00
4:53 PM,75.0,68.0,79,29.81,9.0,ESE,8.1,-,N/A,,Clear,120,2012-10-18 20:53:00
5:53 PM,75.0,68.0,79,29.81,10.0,SE,6.9,-,N/A,,Clear,130,2012-10-18 21:53:00
6:53 PM,75.0,69.1,82,29.81,9.0,ESE,6.9,-,N/A,,Clear,110,2012-10-18 22:53:00
7:53 PM,75.0,70.0,84,29.83,10.0,SE,4.6,-,N/A,,Clear,140,2012-10-18 23:53:00
8:53 PM,75.0,70.0,84,29.84,9.0,SSE,4.6,-,N/A,,Clear,150,2012-10-19 00:53:00
9:53 PM,75.9,71.1,85,29.85,9.0,South,3.5,-,N/A,,Clear,190,2012-10-19 01:53:00
10:53 PM,75.9,72.0,87,29.85,10.0,SSW,3.5,-,N/A,,Scattered Clouds,200,2012-10-19 02:53:00
11:53 PM,75.9,72.0,87,29.84,10.0,South,3.5,-,N/A,,Partly Cloudy,180,2012-10-19 03:53:00